Regional Weather Roundup
Issued by NWS Sterling, VA

Home | Current Version | Previous Version | Graphics & Text | Print | Product List | Glossary On
Versions: 1 2 3 4 5 6 7 8 9 10 11 12 13 14 15 16 17 18 19 20 21 22 23 24 25 26 27 28 29 30 31 32 33 34 35 36 37 38 39 40 41 42 43 44 45 46 47 48 49 50
000
ASUS41 KLWX 240911
RWRLWX

REGIONAL WEATHER ROUNDUP
NATIONAL WEATHER SERVICE BALTIMORE MD/WASHINGTON DC
500 AM EDT MON APR 24 2017

Note: "FAIR" indicates few or no clouds below 12,000 feet
with no significant weather and/or obstructions to visibility.
 TC=TEMPERATURE CELSIUS

 * =Non NWS site. Station does not report precipitation (e.g. rain,
    snow, etc.), thunder, or fog.

DCZ001-MDZ009-015-VAZ040>042-051-053>054-241000-
WASHINGTON METRO

CITY           SKY/WX    TMP DP  RH WIND       PRES   REMARKS
WASHINGTON NAT CLOUDY    55  44  66 E8        30.07S
DULLES         LGT RAIN  52  48  86 NE3       30.07R
ANDREWS AFB    CLOUDY    51  44  77 NE5       30.05S
FT BELVOIR     LGT RAIN  53  48  83 CALM      30.06S
QUANTICO       LGT RAIN  54  47  77 E9        30.07R
COLLEGE PARK*  CLOUDY    52  45  77 CALM      30.07R
LEESBURG*      RAIN      52  50  93 CALM      30.08R
MANASSAS*      LGT RAIN  51  47  86 N5        30.07S

$$

MDZ006>007-011-014-241000-
BALTIMORE METRO

CITY           SKY/WX    TMP DP  RH WIND       PRES   REMARKS
BWI AIRPORT    CLOUDY    53  45  74 NE7       30.07S
MD SCIENCE CTR   N/A     55  44  66 MISG      30.08S
MARTIN STATE   CLOUDY    52  48  87 CALM      30.10R
ANNAPOLIS      CLOUDY    54  46  74 E3        30.06S
FORT MEADE*    CLOUDY    52  45  76 CALM      30.09S

$$

MDZ012-015-019>023-241000-
MARYLAND EASTERN SHORE

CITY           SKY/WX    TMP DP  RH WIND       PRES   REMARKS
OCEAN CITY     CLOUDY    51  46  83 NE14      30.05S
SALISBURY      CLOUDY    50  47  89 NE14      30.04S
BAY BRIDGE AP* LGT RAIN  52  45  76 E6        30.08R
CAMBRIDGE*     CLOUDY    50  46  87 CALM      30.06S
EASTON*        CLOUDY    52  46  82 E7        30.09F

$$

MDZ017>025-241000-
SOUTHERN MARYLAND

CITY           SKY/WX    TMP DP  RH WIND       PRES   REMARKS
PATUXENT RIVER LGT RAIN  52  47  83 NE10      30.04S
ST INIGOES     CLOUDY    52  47  83 NE10      30.02F
LEONARDTOWN*   CLOUDY    50  45  81 NE5       30.06R

$$

MDZ003>005-241000-
NORTH CENTRAL MARYLAND

CITY           SKY/WX    TMP DP  RH WIND       PRES   REMARKS
FREDERICK*     DRIZZLE   52  52 100 CALM      30.10S
HAGERSTOWN APT CLOUDY    52  45  77 CALM      30.06S
WESTMINSTER*   CLOUDY    52  48  87 CALM      30.07S

$$

MDZ501>502-241000-
WESTERN MARYLAND

CITY           SKY/WX    TMP DP  RH WIND       PRES   REMARKS
OAKLAND*       CLOUDY    41  37  87 SE17      30.01S
CUMBERLAND*    CLOUDY    50  45  81 CALM      30.11R

$$

VAZ025>031-241000-
SHENANDOAH VALLEY

CITY           SKY/WX    TMP DP  RH WIND       PRES   REMARKS
WINCHESTER*    LGT RAIN  46  45  93 CALM      30.06S
FRONT ROYAL*   CLOUDY    48  46  93 CALM      30.06R
LURAY*         RAIN      48  48 100 NE5       30.06R
NEW MARKET*    CLOUDY    47  46  93 N5        30.04S
STAUNTON*      RAIN      46  46  98 N3        30.05S
WAYNESBORO*    CLOUDY    46  46 100 N5        30.02F

$$

WVZ021-048>050-054>055-241000-
EASTERN WEST VIRGINIA PANHANDLE

CITY           SKY/WX    TMP DP  RH WIND       PRES   REMARKS
MARTINSBURG    LGT RAIN  50  48  93 CALM      30.06S
PETERSBURG*    RAIN      50  49  96 CALM      30.06S

$$

VAZ036>039-050-241000-
CENTRAL FOOTHILLS

CITY           SKY/WX    TMP DP  RH WIND       PRES   REMARKS
CHARLOTTESVILL LGT RAIN  51  48  89 NE13      30.02F
CULPEPER*      LGT RAIN  51  50  95 N3        30.08R
ORANGE*        CLOUDY    50  45  81 CALM      30.05S
GORDONSVILLE*  CLOUDY    50  48  94 NE7       30.03F
WARRENTON*     RAIN      51  46  82 N5        30.06R

$$

VAZ055>057-241000-
NORTH AND CENTRAL PIEDMONT

CITY           SKY/WX    TMP DP  RH WIND       PRES   REMARKS
FREDERICKSBRG* LGT RAIN  51  49  92 N7        30.05S
STAFFORD*      LGT RAIN  50  48  92 NE5       30.10S

$$

NCZ024-NYZ072-PAZ021-071-VAZ022-071-241000-
OTHER REGIONAL OBSERVATIONS

CITY           SKY/WX    TMP DP  RH WIND       PRES   REMARKS
NEW YORK CITY  CLEAR     50  41  71 CALM      30.15R
PHILADELPHIA   CLOUDY    50  45  83 E5        30.11S
PITTSBURGH     CLOUDY    45  34  65 E6        30.00F
ROANOKE        RAIN      48  47  96 NE3       30.00S
RICHMOND       CLOUDY    51  50  96 NE10      29.99F FOG
RALEIGH        DRZL/FOG  53  52  96 NE12      29.89S VSB 1/2

$$

ANZ530>537-241000-
MARINE OBSERVATIONS

STATION/POSITION TIME  TEMP    WIND        PRES
                       AIR SEA DIR/SP/G
                 (UTC) (F)     (DEG/KT/KT) (MB)
THOMAS PT LIGHT  0900   53 58   60/ 10/ 11   N/A
BALT KEY BRIDGE  0848   54      70/  5/  6 1018.4S
COVE POINT       0848   52      80/ 15/ 18 1017.8F
LEWISETTA        0848   54 63   70/ 13/ 18 1016.3S
SOLOMONS ISLAND  0848   53 61   40/  9/ 12   N/A
PINEY POINT      0848           60/  7/ 11   N/A

$$




USA.gov is the U.S. government's official web portal to all federal, state and local government web resources and services.